[[{"header":{"parameterUnit":"m.s-1","parameterCategory":1,"la1":30.2991,"la2":30.254,"lo1":-89.0895,"lo2":-89.0444,"dy":0.0017,"dx":0.0017,"nx":28,"ny":28,"refTime":"2024-07-06T21:00:00:Z","depth":0,"parameterNumber":2,"parameterNumberName":"U-component_of_WINDS"},"data":[0,0,0,0,0,0,0,0,0,0,0,0,0,0,0,0,0,0,0,0,0,0,0,0,0,0,0,0,0,0,0,0,0,0,0,0,0,0,0,0,0,0,0,0,0,0,0,0,0,0,0,0,0,0,0,0,0,0,-1.3676,-1.3674,0,-1.3493,-1.3491,-1.3489,-1.3359,-1.3358,-1.3357,-1.3356,-1.3166,-1.3162,-1.3157,0,0,0,0,0,0,0,0,0,0,0,0,0,-1.3911,-1.3908,-1.3676,-1.3674,-1.3672,-1.3494,-1.3491,-1.3488,-1.3359,-1.3358,-1.3357,-1.3356,-1.3167,-1.3162,-1.3157,0,0,0,0,0,0,0,0,0,0,0,0,0,-1.3777,-1.3906,-1.3677,-1.3586,-1.3576,-1.3494,-1.3491,-1.3488,-1.336,-1.3358,-1.3357,-1.3355,-1.3169,-1.3163,-1.3156,-1.3149,0,0,-1.3138,-1.3135,0,0,0,0,0,0,0,0,-1.3785,-1.3768,-1.3601,-1.3592,-1.3581,-1.3447,-1.3504,-1.3374,-1.336,-1.3442,-1.3356,-1.3354,-1.326,-1.3247,-1.3216,-1.314,-1.3132,-1.3137,-1.3133,-1.3131,-1.3129,0,0,0,0,0,0,0,-1.3794,-1.3775,-1.3604,-1.3599,-1.3586,-1.3553,-1.3533,-1.3479,-1.3362,-1.3434,-1.3425,-1.3405,-1.3254,-1.3222,-1.321,-1.3129,-1.3137,-1.3132,-1.3128,-1.3125,-1.3039,-1.3041,0,0,0,0,0,0,-1.3818,-1.3784,-1.3609,-1.3598,-1.3681,-1.3551,-1.3527,-1.3492,-1.3362,-1.3341,-1.3406,-1.34,-1.3233,-1.3217,-1.3203,-1.3186,-1.3131,-1.3125,-1.3121,-1.3038,-1.304,-1.3041,0,0,0,0,0,0,-1.3824,-1.3804,-1.3617,-1.3688,-1.3662,-1.3548,-1.3509,-1.3489,-1.3456,-1.3341,-1.3319,-1.3395,-1.3231,-1.3212,-1.3164,-1.3178,-1.3122,-1.3116,-1.3036,-1.3039,-1.3041,-1.3153,0,0,0,0,0,0,-1.3831,-1.3806,-1.3803,-1.3689,-1.3659,-1.3582,-1.351,-1.3486,-1.3446,-1.3436,-1.3324,-1.3304,-1.3229,-1.3174,-1.3158,-1.3168,-1.3112,-1.3035,-1.3037,-1.304,-1.3147,-1.3158,-1.3168,0,0,0,0,0,-1.384,-1.3841,-1.3804,-1.3783,-1.3652,-1.3583,-1.3565,-1.3479,-1.3448,-1.3443,-1.3369,-1.3308,-1.3179,-1.317,-1.3151,-1.316,-1.3033,-1.3037,-1.304,-1.3142,-1.3156,-1.3168,0,0,0,0,0,0,-1.3958,-1.3824,-1.3781,-1.3746,-1.3677,-1.3561,-1.3552,-1.3496,-1.3434,-1.3426,-1.3321,-1.3297,-1.326,-1.3205,-1.3197,-1.3146,-1.3099,-1.3098,-1.3183,-1.3195,-1.3206,-1.3219,-1.3107,0,0,0,0,0,-1.398,-1.3936,-1.3821,-1.3801,-1.3769,-1.3667,-1.3634,-1.3574,-1.3497,-1.3467,-1.3389,-1.3317,-1.326,-1.3225,-1.3166,-1.3139,-1.3113,-1.3135,-1.3146,-1.3155,-1.3156,-1.3137,-1.3146,-1.3052,-1.3052,-1.3052,0,0,-1.4025,-1.3947,-1.3925,-1.3823,-1.3762,-1.3718,-1.3643,-1.3599,-1.3565,-1.346,-1.341,-1.3352,-1.3263,-1.3227,-1.3206,-1.3179,-1.3176,-1.3159,-1.3167,-1.3162,-1.3142,-1.3151,-1.3159,-1.3054,-1.3053,-1.3053,0,0,-1.4084,-1.4021,-1.3997,-1.3938,-1.3848,-1.3781,-1.3776,-1.3668,-1.3626,-1.3575,-1.3495,-1.3453,-1.3357,-1.3298,-1.3255,-1.3294,-1.3235,-1.3278,-1.3331,-1.3315,-1.3323,-1.3329,-1.3342,-1.3349,-1.3279,-1.3279,-1.3279,0,-1.4151,-1.4082,-1.3992,-1.3953,-1.3911,-1.3815,-1.379,-1.3737,-1.3632,-1.3605,-1.3577,-1.3455,-1.3389,-1.3337,-1.3347,-1.3316,-1.3306,-1.3289,-1.3329,-1.3334,-1.3338,-1.335,-1.3356,-1.3285,-1.3284,-1.3284,-1.3283,0,-1.4168,-1.4122,-1.4114,-1.4016,-1.3973,-1.3942,-1.3846,-1.3813,-1.3757,-1.3693,-1.3643,-1.3561,-1.3484,-1.3467,-1.3412,-1.3408,-1.3394,-1.3349,-1.3299,-1.3355,-1.3364,-1.3368,-1.3293,-1.3291,-1.3289,-1.3288,0,0,-1.4295,-1.415,-1.4148,-1.4103,-1.3997,-1.3959,-1.3924,-1.385,-1.3824,-1.3755,-1.3722,-1.3644,-1.3603,-1.3555,-1.3492,-1.3477,-1.3514,-1.3434,-1.343,-1.3451,-1.3504,-1.3538,-1.3545,-1.3475,-1.3475,-1.3475,-1.3511,0,-1.4337,-1.4269,-1.4188,-1.4147,-1.4103,-1.4012,-1.3981,-1.3913,-1.3852,-1.3806,-1.3738,-1.3685,-1.3633,-1.3604,-1.3586,-1.3513,-1.3523,-1.351,-1.3442,-1.3441,-1.3467,-1.355,-1.3585,-1.3623,-1.3515,-1.3515,-1.3515,0,-1.4377,-1.4315,-1.4271,-1.417,-1.4148,-1.4122,-1.4048,-1.4005,-1.3926,-1.3882,-1.383,-1.3763,-1.3721,-1.3678,-1.3617,-1.361,-1.3578,-1.3538,-1.3538,-1.3527,-1.3481,-1.3541,-1.3633,-1.3639,-1.352,-1.352,-1.352,0,-1.4474,-1.4379,-1.434,-1.4304,-1.4186,-1.4169,-1.4119,-1.4038,-1.4,-1.3935,-1.3909,-1.384,-1.3803,-1.3751,-1.3667,-1.3643,-1.3616,-1.3565,-1.3578,-1.358,-1.3575,-1.3577,-1.3663,-1.3556,-1.3556,-1.3556,-1.3556,0,-1.453,-1.4506,-1.4382,-1.4358,-1.4329,-1.4236,-1.4209,-1.4151,-1.408,-1.4043,-1.396,-1.3926,-1.3818,-1.3772,-1.3706,-1.3667,-1.365,-1.3614,-1.3596,-1.3621,-1.3625,-1.3597,-1.3592,-1.3558,-1.3557,-1.3557,-1.3557,0,-1.4632,-1.4549,-1.45,-1.4393,-1.4365,-1.4348,-1.4256,-1.4229,-1.4164,-1.4118,-1.4102,-1.4,-1.3942,-1.3853,-1.3768,-1.3724,-1.3695,-1.3666,-1.3722,-1.3711,-1.3729,-1.3729,-1.38,-1.3804,-1.3696,-1.3697,-1.3698,0,-1.4673,-1.4653,-1.4544,-1.4514,-1.4466,-1.4419,-1.4379,-1.4287,-1.4249,-1.4158,-1.4142,-1.4078,-1.4021,-1.3932,-1.385,-1.3784,-1.3754,-1.3783,-1.3743,-1.3769,-1.3754,-1.3756,-1.3753,-1.3792,-1.3794,-1.3795,-1.3796,0,-1.4754,-1.4714,-1.4661,-1.4594,-1.4549,-1.4492,-1.443,-1.441,-1.4304,-1.4266,-1.4205,-1.4162,-1.4076,-1.4013,-1.3936,-1.3883,-1.3822,-1.381,-1.3809,-1.3834,-1.3867,-1.3849,-1.3747,-1.3808,-1.3807,-1.3806,-1.3806,-1.3805,-1.4826,-1.4804,-1.4725,-1.4668,-1.4613,-1.4557,-1.4527,-1.4459,-1.4408,-1.4331,-1.428,-1.4223,-1.4145,-1.4036,-1.3987,-1.394,-1.3914,-1.3913,-1.3913,-1.3914,-1.3923,-1.3875,-1.3926,-1.3926,-1.3925,-1.3925,-1.3924,0,-1.4903,-1.4848,-1.4797,-1.4714,-1.467,-1.4618,-1.4547,-1.4514,-1.4465,-1.4397,-1.4344,-1.4275,-1.4214,-1.4128,-1.4061,-1.404,-1.4011,-1.4025,-1.4026,-1.4014,-1.395,-1.3958,-1.4051,-1.4051,-1.4051,-1.405,-1.405,-1.405,-1.4937,-1.4898,-1.4849,-1.4781,-1.4725,-1.4669,-1.4634,-1.4582,-1.4528,-1.4455,-1.4405,-1.435,-1.4275,-1.4201,-1.4143,-1.4119,-1.4097,-1.4121,-1.4089,-1.403,-1.4019,-1.4008,-1.4014,-1.4117,-1.4118,-1.4156,-1.4157,-1.4157]},{"header":{"parameterUnit":"m.s-1","parameterCategory":1,"la1":30.2991,"la2":30.254,"lo1":-89.0895,"lo2":-89.0444,"dy":0.0017,"dx":0.0017,"nx":28,"ny":28,"refTime":"2024-07-06T21:00:00:Z","depth":0,"parameterNumber":3,"parameterNumberName":"V-component_of_WINDS"},"data":[0,0,0,0,0,0,0,0,0,0,0,0,0,0,0,0,0,0,0,0,0,0,0,0,0,0,0,0,0,0,0,0,0,0,0,0,0,0,0,0,0,0,0,0,0,0,0,0,0,0,0,0,0,0,0,0,0,0,2.6386,2.6386,0,2.6334,2.6333,2.6333,2.6354,2.6356,2.6357,2.6358,2.6299,2.6296,2.6294,0,0,0,0,0,0,0,0,0,0,0,0,0,2.6501,2.6499,2.6386,2.6386,2.6385,2.6334,2.6333,2.6332,2.6354,2.6356,2.6357,2.6359,2.63,2.6297,2.6293,0,0,0,0,0,0,0,0,0,0,0,0,0,2.645,2.6498,2.6387,2.639,2.639,2.6334,2.6333,2.6332,2.6354,2.6356,2.6358,2.6359,2.6301,2.6297,2.6293,2.6229,0,0,2.628,2.6278,0,0,0,0,0,0,0,0,2.6453,2.6446,2.639,2.639,2.6389,2.6353,2.6352,2.6298,2.6353,2.6367,2.6358,2.636,2.6315,2.631,2.6296,2.6227,2.6224,2.628,2.6277,2.6276,2.6274,0,0,0,0,0,0,0,2.6457,2.6448,2.6365,2.6389,2.6389,2.6393,2.6387,2.6342,2.6331,2.6366,2.6368,2.6361,2.6315,2.63,2.6294,2.6223,2.628,2.6276,2.6274,2.6272,2.61,2.6098,0,0,0,0,0,0,2.6461,2.6451,2.6367,2.6364,2.6427,2.6389,2.6383,2.6362,2.6331,2.6329,2.636,2.6363,2.6306,2.6299,2.6292,2.6217,2.6276,2.6272,2.6269,2.6102,2.61,2.6097,0,0,0,0,0,0,2.6463,2.6453,2.6369,2.6408,2.6398,2.6385,2.6361,2.636,2.6345,2.6327,2.6324,2.6346,2.6307,2.6298,2.6245,2.6215,2.627,2.6266,2.6105,2.6101,2.6099,2.6064,0,0,0,0,0,0,2.6466,2.6454,2.6431,2.6407,2.6395,2.6324,2.636,2.6358,2.6338,2.6341,2.6313,2.6311,2.6308,2.6251,2.6241,2.621,2.6263,2.6107,2.6103,2.61,2.6068,2.606,2.6054,0,0,0,0,0,2.6471,2.6422,2.6429,2.6419,2.6366,2.6322,2.6316,2.6315,2.6336,2.6312,2.63,2.6311,2.622,2.6246,2.6235,2.6202,2.6109,2.6104,2.61,2.6071,2.6062,2.6054,0,0,0,0,0,0,2.6439,2.6419,2.6427,2.6369,2.6348,2.6326,2.6296,2.6305,2.6275,2.6279,2.6278,2.6271,2.6217,2.6204,2.6233,2.6139,2.6168,2.616,2.615,2.6141,2.6134,2.6138,2.6259,0,0,0,0,0,2.6426,2.6394,2.6377,2.6328,2.6317,2.6308,2.6289,2.6291,2.6267,2.6258,2.6242,2.6218,2.6184,2.6162,2.6129,2.6066,2.6061,2.6038,2.6031,2.6025,2.6019,2.5986,2.5976,2.6082,2.6082,2.6082,0,0,2.6398,2.6382,2.6362,2.6321,2.6305,2.627,2.63,2.6262,2.6236,2.6251,2.6202,2.6189,2.6162,2.6105,2.6078,2.6092,2.5989,2.6019,2.6015,2.6012,2.598,2.597,2.5961,2.6079,2.6079,2.608,0,0,2.6329,2.6314,2.6272,2.6255,2.6231,2.6226,2.6216,2.6193,2.6186,2.6137,2.6148,2.6116,2.6057,2.6038,2.602,2.5945,2.5955,2.5935,2.5897,2.5865,2.5856,2.5849,2.5823,2.5813,2.5929,2.5928,2.5928,0,2.6296,2.6246,2.6249,2.621,2.6192,2.6207,2.6164,2.6147,2.6112,2.6098,2.6115,2.6042,2.6025,2.5963,2.5945,2.593,2.5918,2.5938,2.5858,2.585,2.5843,2.5818,2.5808,2.5926,2.5926,2.5927,2.5927,0,2.6208,2.6173,2.6141,2.611,2.6088,2.6048,2.6043,2.602,2.6024,2.6017,2.5966,2.5946,2.591,2.5895,2.5897,2.5834,2.5844,2.5859,2.5887,2.5831,2.5807,2.5798,2.5923,2.5924,2.5924,2.5925,0,0,2.6117,2.6089,2.6077,2.6064,2.6038,2.6011,2.597,2.5938,2.5918,2.5894,2.586,2.5811,2.5825,2.5805,2.5805,2.5777,2.5719,2.5795,2.5794,2.5782,2.5649,2.5638,2.5627,2.5726,2.5724,2.5722,2.5651,0,2.6046,2.5978,2.598,2.5916,2.5884,2.5898,2.5863,2.5843,2.5835,2.5806,2.5796,2.5762,2.5783,2.5771,2.5744,2.5732,2.5693,2.5737,2.5693,2.5692,2.57,2.5615,2.5603,2.5537,2.5642,2.5641,2.5639,0,2.5955,2.593,2.5864,2.5845,2.5831,2.58,2.577,2.5742,2.572,2.5716,2.5695,2.57,2.5658,2.5688,2.5631,2.5661,2.5643,2.5635,2.5632,2.5628,2.5662,2.5609,2.5516,2.5506,2.5625,2.5626,2.5627,0,2.5896,2.5846,2.58,2.5788,2.5764,2.5742,2.573,2.571,2.5691,2.5664,2.5651,2.562,2.5602,2.5577,2.5573,2.5595,2.5515,2.5545,2.5511,2.5511,2.5493,2.5495,2.5397,2.5481,2.5481,2.5481,2.5482,0,2.5818,2.5777,2.5774,2.5746,2.57,2.5701,2.5656,2.5646,2.5628,2.5597,2.5606,2.5577,2.5574,2.5543,2.5539,2.5493,2.5484,2.548,2.548,2.5479,2.548,2.5468,2.5472,2.5479,2.5479,2.548,2.548,0,2.5744,2.5741,2.5692,2.5674,2.5669,2.5636,2.562,2.5592,2.5586,2.5547,2.5538,2.5528,2.5493,2.5486,2.5444,2.5442,2.5386,2.539,2.5394,2.5395,2.5362,2.5365,2.5253,2.5238,2.5331,2.533,2.533,0,2.5695,2.5664,2.5643,2.5625,2.5613,2.5582,2.5563,2.5563,2.5542,2.5515,2.5491,2.5457,2.543,2.5373,2.5361,2.5329,2.5332,2.5295,2.5327,2.5329,2.5332,2.5335,2.5332,2.5289,2.5288,2.5287,2.5286,0,2.5607,2.5608,2.5581,2.5553,2.5531,2.5508,2.5487,2.5471,2.5468,2.5444,2.541,2.5389,2.5347,2.5313,2.5282,2.5269,2.5277,2.5276,2.5267,2.5267,2.5271,2.5269,2.5378,2.5279,2.528,2.528,2.5281,2.5281,2.5545,2.5518,2.5501,2.547,2.5455,2.5436,2.541,2.5401,2.5373,2.534,2.5341,2.5303,2.5282,2.5241,2.5225,2.5195,2.5207,2.5193,2.5189,2.5186,2.5183,2.5276,2.5189,2.5189,2.5189,2.5189,2.519,0,2.5458,2.5448,2.542,2.5392,2.5368,2.538,2.5358,2.5336,2.5303,2.5284,2.5258,2.5218,2.5185,2.5171,2.5139,2.5118,2.5121,2.5109,2.5111,2.5108,2.5174,2.5186,2.5107,2.5107,2.5107,2.5107,2.5107,2.5107,2.5411,2.5368,2.5366,2.5315,2.5304,2.5269,2.5255,2.5237,2.5221,2.5177,2.5151,2.5143,2.5125,2.5092,2.5063,2.5059,2.5047,2.5034,2.5033,2.5095,2.5103,2.5111,2.5122,2.5031,2.5031,2.4969,2.4968,2.4968]}]]